TimePDT,TemperatureF,Dew PointF,Humidity,Sea Level PressureIn,VisibilityMPH,Wind Direction,Wind SpeedMPH,Gust SpeedMPH,PrecipitationIn,Events,Conditions,WindDirDegrees,DateUTC
12:53 AM,64.9,45.0,48,29.95,10.0,NW,15.0,25.3,N/A,,Clear,310,2013-05-08 07:53:00
1:53 AM,64.9,44.1,47,29.94,10.0,NW,15.0,25.3,N/A,,Clear,320,2013-05-08 08:53:00
2:53 AM,64.9,43.0,45,29.94,10.0,NW,6.9,-,N/A,,Clear,320,2013-05-08 09:53:00
3:53 AM,61.0,46.0,58,29.94,10.0,SSE,3.5,-,N/A,,Clear,160,2013-05-08 10:53:00
4:53 AM,61.0,45.0,56,29.96,10.0,SSE,4.6,-,N/A,,Clear,160,2013-05-08 11:53:00
5:53 AM,60.1,46.0,60,29.97,10.0,Calm,Calm,-,N/A,,Clear,0,2013-05-08 12:53:00
6:53 AM,63.0,46.0,54,29.99,10.0,Calm,Calm,-,N/A,,Clear,0,2013-05-08 13:53:00
7:53 AM,64.9,45.0,48,30.00,10.0,Calm,Calm,-,N/A,,Clear,0,2013-05-08 14:53:00
8:53 AM,70.0,42.1,36,30.00,10.0,NNW,10.4,-,N/A,,Clear,330,2013-05-08 15:53:00
9:53 AM,73.0,41.0,31,30.00,10.0,WNW,5.8,-,N/A,,Clear,290,2013-05-08 16:53:00
10:53 AM,75.0,42.1,31,30.00,10.0,NNW,11.5,17.3,N/A,,Clear,330,2013-05-08 17:53:00
11:53 AM,75.9,41.0,29,29.99,10.0,NW,3.5,-,N/A,,Partly Cloudy,310,2013-05-08 18:53:00
12:53 PM,80.1,37.9,22,29.97,10.0,SE,9.2,-,N/A,,Scattered Clouds,130,2013-05-08 19:53:00
1:53 PM,80.1,36.0,20,29.96,10.0,Variable,6.9,-,N/A,,Clear,0,2013-05-08 20:53:00
2:53 PM,80.1,37.9,22,29.94,10.0,Calm,Calm,-,N/A,,Clear,0,2013-05-08 21:53:00
3:53 PM,82.0,43.0,25,29.92,10.0,North,13.8,23.0,N/A,,Clear,350,2013-05-08 22:53:00
4:53 PM,81.0,45.0,28,29.90,10.0,NW,17.3,26.5,N/A,,Clear,320,2013-05-08 23:53:00
5:53 PM,79.0,46.9,32,29.90,10.0,NW,17.3,26.5,N/A,,Clear,320,2013-05-09 00:53:00
6:53 PM,75.9,46.9,36,29.91,10.0,NW,20.7,26.5,N/A,,Clear,320,2013-05-09 01:53:00
7:53 PM,73.0,46.9,39,29.92,10.0,NNW,20.7,31.1,N/A,,Clear,330,2013-05-09 02:53:00
8:53 PM,71.1,46.9,42,29.92,10.0,NW,17.3,29.9,N/A,,Clear,320,2013-05-09 03:53:00
9:53 PM,70.0,46.9,44,29.94,10.0,NW,18.4,-,N/A,,Clear,310,2013-05-09 04:53:00
10:53 PM,69.1,46.0,44,29.95,10.0,NW,16.1,24.2,N/A,,Clear,310,2013-05-09 05:53:00
11:53 PM,69.1,46.0,44,29.95,10.0,NW,15.0,-,N/A,,Clear,320,2013-05-09 06:53:00